Change the Weather History Date:

Friday, August 2, 2013

  Actual Average (KBFD) Record (KBFD)
Temperature  
Mean Temperature 62 °F 65 °F  
Max Temperature 69 °F 77 °F 93 °F (1988)
Min Temperature 55 °F 53 °F 41 °F (1985)
Degree Days  
Heating Degree Days 3 0  
Month to date heating degree days 0  
Since 1 June heating degree days 209  
Since 1 July heating degree days 64  
Cooling Degree Days 0 2  
Month to date cooling degree days 4  
Year to date cooling degree days 128  
Since 1 June cooling degree days 118  
Growing Degree Days 12 (Base 50)    
Moisture  
Dew Point 55 °F    
Average Humidity 79    
Maximum Humidity 100    
Minimum Humidity 49    
Precipitation  
Precipitation 0.00 in 0.14 in 1.03 in (1980)
Month to date precipitation 0.28  
Year to date precipitation 26.12  
Sea Level Pressure  
Sea Level Pressure 29.94 in    
Wind  
Wind Speed 3 mph (WSW)    
Max Wind Speed 10 mph    
Max Gust Speed 22 mph    
Visibility 8 miles    
Events Rain , Thunderstorm    
T = Trace of Precipitation, MM = Missing Value Source: NWS Daily Summary

Daily Weather History Graph

Daily Weather History Graph

Search for Another Location

Airport or City:

Trip Planner

Search our weather history database for the weather conditions in past years. The results will help you decide how hot, cold, wet, or windy it might be!

Date:

Astronomy

Aug. 02, 2013 Rise Set
Actual Time 6:07 AM EDT 8:31 PM EDT
Civil Twilight 5:35 AM EDT 9:02 PM EDT
Nautical Twilight 4:56 AM EDT 9:41 PM EDT
Astronomical Twilight 4:13 AM EDT 10:25 PM EDT
Moon 2:26 AM EDT (8/2) 5:28 PM EDT (8/2)
Length of Visible Light 15h 26m
Length of Day
14h 23m
Waning Crescent, 16% of the Moon is Illuminated
Aug 2
Waning Crescent
Aug 6
New
Aug 14
First Quarter
Aug 20
Full
Aug 28
Last Quarter

Hourly Weather History & Observations

Time (EDT) Temp. Dew Point Humidity Pressure Visibility Wind Dir Wind Speed Gust Speed Precip Events Conditions
12:15 AM 57.2 °F 55.4 °F 94% 29.94 in 10.0 mi Calm Calm - N/A   Clear
12:35 AM 57.2 °F 55.4 °F 94% 29.94 in 10.0 mi Calm Calm - N/A   Clear
12:55 AM 57.2 °F 55.4 °F 94% 29.94 in 10.0 mi Calm Calm - N/A   Clear
1:15 AM 55.4 °F 55.4 °F 100% 29.94 in 10.0 mi Calm Calm - N/A   Clear
1:35 AM 55.4 °F 55.4 °F 100% 29.94 in 10.0 mi Calm Calm - N/A   Clear
1:55 AM 57.2 °F 55.4 °F 94% 29.94 in 10.0 mi Calm Calm - N/A   Clear
2:15 AM 55.4 °F 55.4 °F 100% 29.93 in 10.0 mi Calm Calm - N/A   Clear
2:35 AM 55.4 °F 55.4 °F 100% 29.93 in 5.0 mi Calm Calm - N/A   Mostly Cloudy
2:55 AM 57.2 °F 57.2 °F 100% 29.93 in 7.0 mi Calm Calm - N/A   Overcast
3:15 AM 57.2 °F 57.2 °F 100% 29.93 in 5.0 mi Calm Calm - N/A   Overcast
3:35 AM 59.0 °F 57.2 °F 94% 29.93 in 5.0 mi Calm Calm - N/A   Overcast
3:55 AM 57.2 °F 57.2 °F 100% 29.93 in 5.0 mi Calm Calm - N/A   Overcast
4:15 AM 59.0 °F 57.2 °F 94% 29.93 in 5.0 mi Calm Calm - N/A   Overcast
4:35 AM 57.2 °F 55.4 °F 94% 29.93 in 5.0 mi Calm Calm - N/A   Overcast
4:55 AM 57.2 °F 57.2 °F 100% 29.93 in 5.0 mi Calm Calm - N/A   Overcast
5:15 AM 57.2 °F 55.4 °F 94% 29.93 in 4.0 mi Calm Calm - N/A   Overcast
5:35 AM 57.2 °F 55.4 °F 94% 29.93 in 4.0 mi SSW 3.5 mph - N/A   Overcast
5:55 AM 55.4 °F 55.4 °F 100% 29.93 in 4.0 mi Calm Calm - N/A   Overcast
6:15 AM 55.4 °F 55.4 °F 100% 29.94 in 2.0 mi SSW 5.8 mph - N/A   Overcast
6:35 AM 57.2 °F 57.2 °F 100% 29.94 in 3.0 mi Calm Calm - N/A   Overcast
6:55 AM 57.2 °F 57.2 °F 100% 29.94 in 5.0 mi WSW 3.5 mph - N/A   Overcast
7:15 AM 57.2 °F 55.4 °F 94% 29.95 in 5.0 mi Calm Calm - N/A   Overcast
7:35 AM 57.2 °F 57.2 °F 100% 29.96 in 4.0 mi SSW 4.6 mph - N/A   Overcast
7:55 AM 57.2 °F 57.2 °F 100% 29.96 in 4.0 mi SSW 4.6 mph - N/A   Overcast
8:35 AM 57.2 °F 57.2 °F 100% 29.97 in 2.5 mi SSW 4.6 mph - N/A   Overcast
8:55 AM 57.2 °F 57.2 °F 100% 29.97 in 3.0 mi SSW 4.6 mph - N/A   Overcast
9:15 AM 59.0 °F 59.0 °F 100% 29.97 in 4.0 mi SSW 4.6 mph - N/A   Overcast
9:35 AM 59.0 °F 59.0 °F 100% 29.97 in 7.0 mi SSW 4.6 mph - N/A   Overcast
9:55 AM 60.8 °F 59.0 °F 94% 29.96 in 7.0 mi SSW 3.5 mph - N/A   Overcast
10:15 AM 62.6 °F 59.0 °F 88% 29.95 in 10.0 mi SW 3.5 mph - N/A   Mostly Cloudy
10:35 AM 62.6 °F 59.0 °F 88% 29.95 in 10.0 mi SW 4.6 mph - N/A Thunderstorm Overcast
10:55 AM 64.4 °F 59.0 °F 83% 29.95 in 10.0 mi SW 4.6 mph - N/A   Mostly Cloudy
11:15 AM 66.2 °F 59.0 °F 78% 29.94 in 10.0 mi SW 5.8 mph - N/A   Scattered Clouds
11:35 AM 68.0 °F 57.2 °F 68% 29.94 in 10.0 mi WSW 5.8 mph - N/A   Scattered Clouds
11:55 AM 68.0 °F 55.4 °F 64% 29.95 in 10.0 mi West 6.9 mph - N/A   Scattered Clouds
12:15 PM 66.2 °F 55.4 °F 68% 29.95 in 10.0 mi WSW 5.8 mph - N/A   Scattered Clouds
12:35 PM 66.2 °F 55.4 °F 68% 29.94 in 10.0 mi WSW 8.1 mph - N/A   Clear
12:55 PM 68.0 °F 55.4 °F 64% 29.94 in 10.0 mi SW 8.1 mph - N/A   Clear
1:15 PM 69.8 °F 55.4 °F 60% 29.94 in 10.0 mi WSW 8.1 mph 18.4 mph N/A   Mostly Cloudy
1:35 PM 68.0 °F 55.4 °F 64% 29.94 in 10.0 mi WSW 4.6 mph 9.2 mph N/A   Mostly Cloudy
1:55 PM 68.0 °F 55.4 °F 64% 29.94 in 10.0 mi WSW 8.1 mph 16.1 mph N/A   Overcast
2:15 PM 66.2 °F 53.6 °F 64% 29.95 in 10.0 mi West 6.9 mph - N/A   Mostly Cloudy
2:35 PM 69.8 °F 53.6 °F 56% 29.94 in 10.0 mi West 8.1 mph 17.3 mph N/A   Scattered Clouds
2:55 PM 68.0 °F 53.6 °F 60% 29.95 in 10.0 mi West 6.9 mph - N/A   Mostly Cloudy
3:15 PM 69.8 °F 55.4 °F 60% 29.95 in 10.0 mi West 8.1 mph - N/A   Mostly Cloudy
3:35 PM 68.0 °F 51.8 °F 56% 29.94 in 10.0 mi WSW 5.8 mph - N/A   Mostly Cloudy
3:55 PM 69.8 °F 53.6 °F 56% 29.93 in 10.0 mi West 5.8 mph - N/A   Mostly Cloudy
4:15 PM 69.8 °F 53.6 °F 56% 29.92 in 10.0 mi West 5.8 mph - N/A   Scattered Clouds
4:35 PM 69.8 °F 51.8 °F 53% 29.93 in 10.0 mi West 5.8 mph 17.3 mph N/A   Scattered Clouds
4:55 PM 69.8 °F 50.0 °F 49% 29.93 in 10.0 mi West 10.4 mph 17.3 mph N/A   Scattered Clouds
5:15 PM 69.8 °F 51.8 °F 53% 29.93 in 10.0 mi West 9.2 mph 19.6 mph N/A   Scattered Clouds
5:35 PM 69.8 °F 50.0 °F 49% 29.93 in 10.0 mi WSW 9.2 mph 21.9 mph N/A   Clear
5:55 PM 68.0 °F 51.8 °F 56% 29.93 in 10.0 mi West 6.9 mph 16.1 mph N/A   Scattered Clouds
6:15 PM 69.8 °F 53.6 °F 56% 29.93 in 10.0 mi West 5.8 mph - N/A   Scattered Clouds
6:35 PM 68.0 °F 51.8 °F 56% 29.93 in 10.0 mi WSW 6.9 mph - N/A   Scattered Clouds
6:55 PM 66.2 °F 51.8 °F 60% 29.93 in 10.0 mi WSW 5.8 mph - N/A   Scattered Clouds
7:15 PM 66.2 °F 51.8 °F 60% 29.92 in 10.0 mi West 5.8 mph - N/A   Clear
7:35 PM 64.4 °F 51.8 °F 64% 29.93 in 10.0 mi WSW 5.8 mph - N/A   Scattered Clouds
7:55 PM 64.4 °F 51.8 °F 64% 29.93 in 10.0 mi WSW 5.8 mph - N/A   Scattered Clouds
8:15 PM 64.4 °F 53.6 °F 68% 29.94 in 10.0 mi SW 4.6 mph - N/A   Mostly Cloudy
8:35 PM 62.6 °F 53.6 °F 72% 29.93 in 10.0 mi SW 6.9 mph - N/A   Mostly Cloudy
8:55 PM 62.6 °F 53.6 °F 72% 29.93 in 10.0 mi SW 5.8 mph - N/A   Mostly Cloudy
9:15 PM 62.6 °F 53.6 °F 72% 29.93 in 10.0 mi SW 4.6 mph - N/A   Mostly Cloudy
9:35 PM 62.6 °F 53.6 °F 72% 29.93 in 10.0 mi SW 6.9 mph - N/A Rain Light Rain
9:55 PM 62.6 °F 53.6 °F 72% 29.94 in 10.0 mi SW 5.8 mph - N/A   Overcast
10:15 PM 62.6 °F 53.6 °F 72% 29.93 in 10.0 mi SW 8.1 mph - N/A   Mostly Cloudy
10:35 PM 62.6 °F 53.6 °F 72% 29.93 in 10.0 mi SW 5.8 mph - N/A   Mostly Cloudy
10:55 PM 62.6 °F 53.6 °F 72% 29.93 in 10.0 mi SW 5.8 mph - N/A   Overcast
11:15 PM 62.6 °F 53.6 °F 72% 29.92 in 10.0 mi SW 8.1 mph - N/A   Overcast
11:35 PM 60.8 °F 53.6 °F 77% 29.93 in 10.0 mi SW 5.8 mph - N/A   Overcast
11:55 PM 60.8 °F 53.6 °F 77% 29.92 in 10.0 mi SW 5.8 mph - N/A   Overcast